Regional Weather Roundup
Issued by NWS

Home | Current Version | Previous Version | Text Only | Print | Product List | Glossary On
Versions: 1 2 3 4 5 6 7 8 9 10 11 12 13 14 15 16 17 18 19 20 21 22 23 24 25 26 27 28 29 30 31 32 33 34 35 36 37 38 39 40 41 42 43 44 45 46 47
000
ASUS43 KDMX 182207
RWRIA

WEATHER ROUNDUP FOR IOWA
NATIONAL WEATHER SERVICE DES MOINES IA
500 PM CDT THU SEP 18 2014

NOTE: "FAIR" INDICATES FEW OR NO CLOUDS BELOW 12,000 FEET WITH NO
SIGNIFICANT WEATHER AND/OR OBSTRUCTIONS TO VISIBILITY.

* - THESE STATIONS ARE NOT NWS STATIONS...THUS NOT UNDER NWS
QUALITY CONTROL.  THEY ALSO DO NOT REPORT WEATHER SUCH
AS PRECIPITATION OR FOG.

IAZ001>003-012>014-020>022-031>034-043>046-182300-
   NORTHWEST IOWA

CITY           SKY/WX    TMP DP  RH WIND       PRES   REMARKS
CARROLL *      SUNNY     72  55  56 S13G18    29.99F
CHEROKEE *     SUNNY     73  54  49 S9        29.97F
DENISON *      MOSUNNY   72  57  60 SE10      29.97S
LE MARS *      SUNNY     75  57  53 S12       29.95F
ORANGE CITY *  SUNNY     75  54  46 S14       29.96F
SHELDON *      SUNNY     73  54  49 SE12G18   29.96S
SIOUX CITY     SUNNY     77  56  48 S8G17     29.95F
SPENCER        SUNNY     74  48  39 S14       29.98F
STORM LAKE *   SUNNY     72  55  56 SE12      29.99F
$$

IAZ055>058-069>071-079>083-090>094-182300-
   SOUTHWEST IOWA

CITY           SKY/WX    TMP DP  RH WIND       PRES   REMARKS
ATLANTIC *     SUNNY     72  55  56 S9G15     29.99S
AUDUBON *      SUNNY     72  54  53 SE7       30.01F
CLARINDA *     SUNNY     73  57  56 SE7G14    30.00F
COUNCIL BLFS * SUNNY     73  59  60 SE10G16   29.97S
CRESTON *      SUNNY     70  54  56 E10       30.02F
HARLAN  *      SUNNY     72  55  56 S12       30.02S
LAMONI         MOSUNNY   66  57  72 SE6       30.03S
SHENANDOAH *   SUNNY     73  57  56 SE10      29.99F
$$

IAZ047>049-059>061-072>074-084-182300-
   CENTRAL IOWA

CITY           SKY/WX    TMP DP  RH WIND       PRES   REMARKS
AMES           SUNNY     72  52  49 S12       30.02F
ANKENY *       SUNNY     72  54  53 SE12      30.02S
CHARITON *     MOSUNNY   72  55  56 SE9       30.03S
DES MOINES     MOSUNNY   73  53  49 SE10      30.02F
GRINNELL*      SUNNY     72  52  49 SE8       30.04S
KNOXVILLE *    SUNNY     70  50  49 S13       30.02S
MARSHALLTOWN   SUNNY     72  53  51 SE12      30.03S
PELLA *        SUNNY     73  52  46 SE9       30.04S
PERRY *          N/A     73  50  43 SE9       30.01F
$$

IAZ004>006-015-016-023>025-035-036-182300-
   NORTH CENTRAL IOWA

CITY           SKY/WX    TMP DP  RH WIND       PRES   REMARKS
ALGONA *       SUNNY     73  46  38 S13       30.00F
CLARION *        N/A     73  48  40 S10G18    30.01F
ESTHERVILLE    SUNNY     73  50  44 S15       29.98F
FORT DODGE *   SUNNY     72  48  43 S10G16    30.02F
MASON CITY     SUNNY     72  53  51 S13       30.03F
FOREST CITY *  SUNNY     72  52  49 SE12G20   30.01F
IOWA FALLS *     N/A     73  52  46 S13       30.04S
$$

IAZ007>011-017>019-026>030-037>042-050>054-066-182300-
   NORTHEAST IOWA

CITY           SKY/WX    TMP DP  RH WIND       PRES   REMARKS
CEDAR RAPIDS   SUNNY     72  54  53 SE12      30.05S
CHARLES CITY * SUNNY     73  52  46 S13       30.05S
CLINTON *      SUNNY     72  52  49 E10       30.10S
DECORAH *      MOSUNNY   70  55  60 SE9       30.06S
DUBUQUE        MOSUNNY   69  52  54 E10       30.09S
MONTICELLO *   MOSUNNY   72  54  53 E8        30.06F
OELWEIN *      MOSUNNY   72  52  49 S9        30.06S
WATERLOO       SUNNY     72  52  49 SE15      30.04S
$$

IAZ064-065-067-068-078-182300-
   EAST CENTRAL IOWA

CITY           SKY/WX    TMP DP  RH WIND       PRES   REMARKS
DAVENPORT      MOSUNNY   72  49  44 SE9G17    30.07F
IOWA CITY      MOSUNNY   73  54  51 SE10      30.05F
MT. PLEASANT * MOSUNNY   75  48  38 SE8       30.04S
MUSCATINE *    SUNNY     75  50  41 SE7G13    30.04F
QUAD CITIES    SUNNY     72  52  49 E14       30.06S
$$

IAZ062-063-075>077-085>089-095>099-182300-
   SOUTHEAST IOWA

CITY           SKY/WX    TMP DP  RH WIND       PRES   REMARKS
BURLINGTON     SUNNY     74  53  48 E8        30.04F
FAIRFIELD *    PTSUNNY   73  54  49 E12       30.04S
FORT MADISON * MOSUNNY   75  52  43 E5        30.05S
KEOKUK *       SUNNY     73  55  53 E8G14     30.03F
OSKALOOSA *      N/A     72  54  53 S10       30.04S
CENTERVILLE *  MOSUNNY   66  59  77 SE7       30.05S
OTTUMWA        SUNNY     71  52  50 SE12      30.03F
WASHINGTON *   MOSUNNY   75  54  46 SE9G15    30.04S
$$

ABBREVIATIONS USED IN REMARKS
   TC - TEMPERATURES IN CELSIUS
  WCI - WIND CHILL INDEX
   HX - HEAT INDEX
  VSB - VISIBILITY
$$




USA.gov is the U.S. government's official web portal to all federal, state and local government web resources and services.